Location: Newark
(31.0436°N, 112.2008°E)
Time: 01:41:08
(UTC+00:00)

N. Korean satellite - Pass Details

Date: 03 February 2020
Orbit: 456 x 505 km, 97.2° (Epoch: 25 February)

Event Time Altitude Azimuth Distance (km) Brightness Sun altitude
Rises 22:20:07 0° 7° (N) 2,579 10.2 -13.6°
Reaches altitude 10° 22:22:12 10° 5° (N) 1,700 9.3 -13.2°
Maximum altitude 22:25:50 67° 283° (WNW) 546 6.5 -12.4°
Drops below altitude 10° 22:29:29 10° 200° (SSW) 1,705 9.2 -11.6°
Sets 22:31:34 0° 198° (SSW) 2,588 10.2 -11.2°
